Time,TemperatureF,DewpointF,PressureIn,WindDirection,WindDirectionDegrees,WindSpeedMPH,WindSpeedGustMPH,Humidity,HourlyPrecipIn,Conditions,Clouds,dailyrainin,SoftwareType,DateUTC
2013-02-11 00:00:00,21.9,-11.1,29.95,WSW,254,0.0,0.0,22,0.00,,---,0.00,VWS V13.01,2013-02-11 05:00:00,
2013-02-11 00:01:00,21.9,-11.1,29.98,WSW,254,0.0,0.0,22,0.00,,---,0.00,VWS V13.01,2013-02-11 05:01:00,
2013-02-11 00:02:00,21.9,-11.1,29.98,WSW,254,0.0,0.0,22,0.00,,---,0.00,VWS V13.01,2013-02-11 05:02:00,
2013-02-11 00:07:00,21.9,-11.1,29.98,WSW,254,0.0,0.0,22,0.00,,---,0.00,VWS V13.01,2013-02-11 05:07:00,
2013-02-11 00:12:00,21.9,-11.1,29.98,WSW,254,0.0,0.0,22,0.00,,---,0.00,VWS V13.01,2013-02-11 05:12:00,
2013-02-11 00:17:00,21.9,-11.1,29.95,WSW,254,0.0,0.0,22,0.00,,---,0.00,VWS V13.01,2013-02-11 05:17:00,
2013-02-11 00:23:00,22.1,-10.9,29.95,WSW,254,0.0,0.0,22,0.00,,---,0.00,VWS V13.01,2013-02-11 05:23:00,
2013-02-11 00:28:00,22.1,-10.9,29.95,WSW,254,0.0,0.0,22,0.00,,---,0.00,VWS V13.01,2013-02-11 05:28:00,
2013-02-11 00:33:00,22.3,-10.8,29.95,WSW,254,0.0,0.0,22,0.00,,---,0.00,VWS V13.01,2013-02-11 05:33:00,
2013-02-11 00:38:00,22.5,-10.6,29.95,WSW,254,0.0,0.0,22,0.00,,---,0.00,VWS V13.01,2013-02-11 05:38:00,
2013-02-11 00:43:00,22.6,-10.5,29.95,WSW,254,0.0,0.0,22,0.00,,---,0.00,VWS V13.01,2013-02-11 05:43:00,
2013-02-11 00:48:00,22.8,-10.3,29.95,WSW,254,0.0,0.0,22,0.00,,---,0.00,VWS V13.01,2013-02-11 05:48:00,
2013-02-11 00:53:00,22.8,-10.3,29.95,WSW,254,0.0,0.0,22,0.00,,---,0.00,VWS V13.01,2013-02-11 05:53:00,
2013-02-11 00:59:00,22.8,-10.3,29.95,WSW,254,0.0,0.0,22,0.00,,---,0.00,VWS V13.01,2013-02-11 05:59:00,
2013-02-11 01:04:00,22.8,-10.3,29.95,WSW,254,0.0,0.0,22,0.00,,---,0.00,VWS V13.01,2013-02-11 06:04:00,
2013-02-11 01:09:00,22.6,-10.5,29.95,WSW,254,0.0,0.0,22,0.00,,---,0.00,VWS V13.01,2013-02-11 06:09:00,
2013-02-11 01:14:00,22.6,-10.5,29.95,WSW,254,0.0,0.0,22,0.00,,---,0.00,VWS V13.01,2013-02-11 06:14:00,
2013-02-11 01:19:00,22.6,-10.5,29.95,WSW,254,0.0,0.0,22,0.00,,---,0.00,VWS V13.01,2013-02-11 06:19:00,
2013-02-11 01:24:00,22.6,-10.5,29.95,WSW,254,0.0,0.0,22,0.00,,---,0.00,VWS V13.01,2013-02-11 06:24:00,
2013-02-11 01:29:00,22.5,-10.6,29.95,WSW,254,0.0,0.0,22,0.00,,---,0.00,VWS V13.01,2013-02-11 06:29:00,
2013-02-11 01:34:00,22.5,-10.6,29.92,WSW,254,0.0,0.0,22,0.00,,---,0.00,VWS V13.01,2013-02-11 06:34:00,
2013-02-11 01:39:00,22.5,-10.6,29.92,WSW,254,0.0,0.0,22,0.00,,---,0.00,VWS V13.01,2013-02-11 06:39:00,
2013-02-11 01:45:00,22.6,-10.5,29.92,WSW,254,0.0,0.0,22,0.00,,---,0.00,VWS V13.01,2013-02-11 06:45:00,
2013-02-11 01:50:00,22.6,-10.5,29.92,WSW,254,0.0,0.0,22,0.00,,---,0.00,VWS V13.01,2013-02-11 06:50:00,
2013-02-11 01:55:00,22.8,-10.3,29.92,WSW,254,0.0,0.0,22,0.00,,---,0.00,VWS V13.01,2013-02-11 06:55:00,
2013-02-11 02:00:00,22.8,-10.3,29.92,WSW,254,0.0,0.0,22,0.00,,---,0.00,VWS V13.01,2013-02-11 07:00:00,
2013-02-11 02:05:00,23.0,-10.2,29.92,WSW,254,0.0,0.0,22,0.00,,---,0.00,VWS V13.01,2013-02-11 07:05:00,
2013-02-11 02:10:00,23.2,-10.0,29.92,WSW,254,0.0,0.0,22,0.00,,---,0.00,VWS V13.01,2013-02-11 07:10:00,
2013-02-11 02:15:00,23.4,-9.9,29.92,WSW,254,0.0,0.0,22,0.00,,---,0.00,VWS V13.01,2013-02-11 07:15:00,
2013-02-11 02:20:00,23.5,-9.7,29.92,WSW,254,0.0,0.0,22,0.00,,---,0.00,VWS V13.01,2013-02-11 07:20:00,
2013-02-11 02:25:00,23.5,-9.7,29.92,WSW,254,0.0,0.0,22,0.00,,---,0.00,VWS V13.01,2013-02-11 07:25:00,
2013-02-11 02:31:00,23.5,-9.7,29.92,WSW,254,0.0,0.0,22,0.00,,---,0.00,VWS V13.01,2013-02-11 07:31:00,
2013-02-11 02:36:00,23.5,-9.7,29.89,WSW,254,0.0,0.0,22,0.00,,---,0.00,VWS V13.01,2013-02-11 07:36:00,
2013-02-11 02:41:00,23.5,-9.7,29.89,WSW,254,0.0,0.0,22,0.00,,---,0.00,VWS V13.01,2013-02-11 07:41:00,
2013-02-11 02:46:00,23.5,-9.7,29.89,WSW,254,0.0,0.0,22,0.00,,---,0.00,VWS V13.01,2013-02-11 07:46:00,
2013-02-11 02:51:00,23.7,-9.6,29.89,WSW,254,0.0,0.0,22,0.00,,---,0.00,VWS V13.01,2013-02-11 07:51:00,
2013-02-11 02:56:00,23.9,-9.4,29.89,WSW,254,0.0,0.0,22,0.00,,---,0.00,VWS V13.01,2013-02-11 07:56:00,
2013-02-11 03:01:00,23.9,-9.4,29.89,WSW,254,0.0,0.0,22,0.00,,---,0.00,VWS V13.01,2013-02-11 08:01:00,
2013-02-11 03:06:00,24.1,-9.2,29.89,WSW,254,0.0,0.0,22,0.00,,---,0.00,VWS V13.01,2013-02-11 08:06:00,
2013-02-11 03:11:00,24.1,-9.2,29.89,WSW,254,0.0,0.0,22,0.00,,---,0.00,VWS V13.01,2013-02-11 08:11:00,
2013-02-11 03:17:00,23.9,-9.4,29.86,WSW,254,0.0,0.0,22,0.00,,---,0.00,VWS V13.01,2013-02-11 08:17:00,
2013-02-11 03:22:00,23.7,-9.6,29.86,WSW,254,0.0,0.0,22,0.00,,---,0.00,VWS V13.01,2013-02-11 08:22:00,
2013-02-11 03:27:00,23.7,-9.6,29.86,WSW,254,0.0,0.0,22,0.00,,---,0.00,VWS V13.01,2013-02-11 08:27:00,
2013-02-11 03:32:00,23.9,-9.4,29.86,WSW,254,0.0,0.0,22,0.00,,---,0.00,VWS V13.01,2013-02-11 08:32:00,
2013-02-11 03:37:00,24.1,-9.2,29.86,WSW,254,0.0,0.0,22,0.00,,---,0.00,VWS V13.01,2013-02-11 08:37:00,
2013-02-11 03:42:00,24.3,-9.1,29.86,WSW,254,0.0,0.0,22,0.00,,---,0.00,VWS V13.01,2013-02-11 08:42:00,
2013-02-11 03:47:00,24.6,-8.8,29.86,WSW,254,0.0,0.0,22,0.00,,---,0.00,VWS V13.01,2013-02-11 08:47:00,
2013-02-11 03:53:00,25.0,-6.7,29.86,WSW,254,0.0,0.0,24,0.00,,---,0.00,VWS V13.01,2013-02-11 08:53:00,
2013-02-11 03:58:00,25.3,-6.4,29.86,WSW,254,0.0,0.0,24,0.00,,---,0.00,VWS V13.01,2013-02-11 08:58:00,
2013-02-11 04:03:00,25.5,-6.2,29.86,WSW,254,0.0,0.0,24,0.00,,---,0.00,VWS V13.01,2013-02-11 09:03:00,
2013-02-11 04:08:00,25.5,-6.2,29.86,WSW,254,0.0,0.0,24,0.00,,---,0.00,VWS V13.01,2013-02-11 09:08:00,
2013-02-11 04:13:00,25.5,-6.2,29.86,WSW,254,0.0,0.0,24,0.00,,---,0.00,VWS V13.01,2013-02-11 09:13:00,
2013-02-11 04:18:00,25.5,-6.2,29.86,WSW,254,0.0,0.0,24,0.00,,---,0.00,VWS V13.01,2013-02-11 09:18:00,
2013-02-11 04:23:00,25.5,-6.2,29.86,WSW,254,0.0,0.0,24,0.00,,---,0.00,VWS V13.01,2013-02-11 09:23:00,
2013-02-11 04:28:00,25.5,-6.2,29.86,WSW,254,0.0,0.0,24,0.00,,---,0.00,VWS V13.01,2013-02-11 09:28:00,
2013-02-11 04:34:00,25.5,-6.2,29.86,WSW,254,0.0,0.0,24,0.00,,---,0.00,VWS V13.01,2013-02-11 09:34:00,
2013-02-11 04:39:00,25.5,-6.2,29.86,WSW,254,0.0,0.0,24,0.00,,---,0.00,VWS V13.01,2013-02-11 09:39:00,
2013-02-11 04:44:00,25.5,-9.0,29.86,WSW,254,0.0,0.0,21,0.00,,---,0.00,VWS V13.01,2013-02-11 09:44:00,
2013-02-11 04:49:00,25.5,-6.2,29.83,WSW,254,0.0,0.0,24,0.00,,---,0.00,VWS V13.01,2013-02-11 09:49:00,
2013-02-11 04:54:00,25.5,-6.2,29.83,WSW,254,0.0,0.0,24,0.00,,---,0.00,VWS V13.01,2013-02-11 09:54:00,
2013-02-11 04:59:00,25.9,-5.9,29.83,WSW,254,0.0,0.0,24,0.00,,---,0.00,VWS V13.01,2013-02-11 09:59:00,
2013-02-11 05:04:00,26.1,-5.8,29.83,WSW,254,0.0,0.0,24,0.00,,---,0.00,VWS V13.01,2013-02-11 10:04:00,
2013-02-11 05:10:00,26.2,-5.6,29.83,WSW,254,0.0,0.0,24,0.00,,---,0.00,VWS V13.01,2013-02-11 10:10:00,
2013-02-11 05:15:00,26.4,-5.5,29.83,WSW,254,0.0,0.0,24,0.00,,---,0.00,VWS V13.01,2013-02-11 10:15:00,
2013-02-11 05:20:00,26.2,-5.6,29.83,WSW,254,0.0,0.0,24,0.00,,---,0.00,VWS V13.01,2013-02-11 10:20:00,
2013-02-11 05:25:00,26.2,-5.6,29.83,WSW,254,0.0,0.0,24,0.00,,---,0.00,VWS V13.01,2013-02-11 10:25:00,
2013-02-11 05:30:00,26.1,-5.8,29.80,WSW,254,0.0,0.0,24,0.00,,---,0.00,VWS V13.01,2013-02-11 10:30:00,
2013-02-11 05:35:00,26.1,-5.8,29.80,WSW,254,0.0,0.0,24,0.00,,---,0.00,VWS V13.01,2013-02-11 10:35:00,
2013-02-11 05:40:00,26.2,-5.6,29.80,WSW,254,0.0,0.0,24,0.00,,---,0.00,VWS V13.01,2013-02-11 10:40:00,
2013-02-11 05:46:00,26.4,-5.5,29.80,WSW,254,0.0,0.0,24,0.00,,---,0.00,VWS V13.01,2013-02-11 10:46:00,
2013-02-11 05:51:00,26.8,-6.0,29.80,WSW,254,0.0,0.0,23,0.00,,---,0.00,VWS V13.01,2013-02-11 10:51:00,
2013-02-11 05:56:00,27.0,-3.3,29.80,WSW,254,0.0,0.0,26,0.00,,---,0.00,VWS V13.01,2013-02-11 10:56:00,
2013-02-11 06:01:00,27.0,-3.3,29.80,WSW,254,0.0,0.0,26,0.00,,---,0.00,VWS V13.01,2013-02-11 11:01:00,
2013-02-11 06:06:00,27.1,-3.2,29.80,WSW,254,0.0,0.0,26,0.00,,---,0.00,VWS V13.01,2013-02-11 11:06:00,
2013-02-11 06:11:00,27.1,-3.2,29.80,WSW,254,0.0,0.0,26,0.00,,---,0.00,VWS V13.01,2013-02-11 11:11:00,
2013-02-11 06:16:00,27.3,-3.0,29.80,WSW,254,0.0,0.0,26,0.00,,---,0.00,VWS V13.01,2013-02-11 11:16:00,
2013-02-11 06:21:00,27.5,-1.3,29.80,WSW,254,0.0,0.0,28,0.00,,---,0.00,VWS V13.01,2013-02-11 11:21:00,
2013-02-11 06:26:00,27.7,-1.2,29.80,WSW,254,0.0,0.0,28,0.00,,---,0.00,VWS V13.01,2013-02-11 11:26:00,
2013-02-11 06:32:00,27.9,-1.0,29.77,WSW,254,0.0,0.0,28,0.00,,---,0.00,VWS V13.01,2013-02-11 11:32:00,
2013-02-11 06:37:00,28.0,-0.9,29.77,WSW,254,0.0,0.0,28,0.00,,---,0.00,VWS V13.01,2013-02-11 11:37:00,
2013-02-11 06:42:00,28.2,1.5,29.77,WSW,254,0.0,0.0,31,0.00,,---,0.00,VWS V13.01,2013-02-11 11:42:00,
2013-02-11 06:47:00,28.4,1.6,29.77,WSW,254,0.0,0.0,31,0.00,,---,0.00,VWS V13.01,2013-02-11 11:47:00,
2013-02-11 06:52:00,28.6,1.8,29.77,WSW,254,0.0,0.0,31,0.00,,---,0.00,VWS V13.01,2013-02-11 11:52:00,
2013-02-11 06:57:00,28.9,2.8,29.77,North,9,0.0,2.7,32,0.00,,---,0.00,VWS V13.01,2013-02-11 11:57:00,
2013-02-11 07:02:00,29.5,3.9,29.77,NNE,17,0.0,0.0,33,0.00,,---,0.00,VWS V13.01,2013-02-11 12:02:00,
2013-02-11 07:08:00,29.8,4.2,29.77,NNE,17,0.0,0.0,33,0.00,,---,0.00,VWS V13.01,2013-02-11 12:08:00,
2013-02-11 07:13:00,30.6,5.5,29.77,NNE,29,0.0,0.0,34,0.00,,---,0.00,VWS V13.01,2013-02-11 12:13:00,
2013-02-11 07:18:00,31.5,8.2,29.74,NNE,33,0.0,0.0,37,0.00,,---,0.00,VWS V13.01,2013-02-11 12:18:00,
2013-02-11 07:23:00,32.0,9.3,29.74,NNE,33,0.0,0.0,38,0.00,,---,0.00,VWS V13.01,2013-02-11 12:23:00,
2013-02-11 07:28:00,32.4,9.6,29.74,NNE,33,0.0,0.0,38,0.00,,---,0.00,VWS V13.01,2013-02-11 12:28:00,
2013-02-11 07:33:00,32.5,10.9,29.74,SE,144,0.0,0.0,40,0.00,,---,0.00,VWS V13.01,2013-02-11 12:33:00,
2013-02-11 07:38:00,32.7,11.1,29.74,South,174,0.0,0.0,40,0.00,,---,0.00,VWS V13.01,2013-02-11 12:38:00,
2013-02-11 07:43:00,32.9,11.2,29.74,South,186,0.0,0.0,40,0.00,,---,0.00,VWS V13.01,2013-02-11 12:43:00,
2013-02-11 07:49:00,32.9,11.8,29.74,South,185,0.0,0.0,41,0.00,,---,0.00,VWS V13.01,2013-02-11 12:49:00,
2013-02-11 07:54:00,33.1,12.0,29.74,SE,131,0.0,0.0,41,0.00,,---,0.00,VWS V13.01,2013-02-11 12:54:00,
2013-02-11 07:59:00,33.1,12.0,29.74,South,173,0.0,2.7,41,0.00,,---,0.00,VWS V13.01,2013-02-11 12:59:00,
2013-02-11 08:04:00,33.6,13.5,29.71,South,176,0.0,0.0,43,0.00,,---,0.00,VWS V13.01,2013-02-11 13:04:00,
2013-02-11 08:09:00,33.4,12.8,29.71,South,176,0.0,0.0,42,0.00,,---,0.00,VWS V13.01,2013-02-11 13:09:00,
2013-02-11 08:14:00,33.6,13.5,29.71,South,177,0.0,2.7,43,0.00,,---,0.00,VWS V13.01,2013-02-11 13:14:00,
2013-02-11 08:19:00,33.6,13.5,29.71,South,177,0.0,2.7,43,0.00,,---,0.00,VWS V13.01,2013-02-11 13:19:00,
2013-02-11 08:25:00,33.8,13.7,29.71,South,177,0.0,0.0,43,0.00,,---,0.00,VWS V13.01,2013-02-11 13:25:00,
2013-02-11 08:30:00,34.0,13.9,29.71,SSE,168,0.0,0.0,43,0.00,,---,0.00,VWS V13.01,2013-02-11 13:30:00,
2013-02-11 08:35:00,34.2,14.0,29.68,South,170,0.0,2.7,43,0.00,,---,0.00,VWS V13.01,2013-02-11 13:35:00,
2013-02-11 08:40:00,34.3,14.2,29.68,South,170,0.0,0.0,43,0.00,,---,0.00,VWS V13.01,2013-02-11 13:40:00,
2013-02-11 08:45:00,34.5,14.9,29.68,South,170,0.0,0.0,44,0.00,,---,0.00,VWS V13.01,2013-02-11 13:45:00,
2013-02-11 08:51:00,34.7,15.0,29.68,South,170,0.0,0.0,44,0.00,,---,0.00,VWS V13.01,2013-02-11 13:51:00,
2013-02-11 08:56:00,34.9,15.2,29.68,South,170,0.0,0.0,44,0.00,,---,0.00,VWS V13.01,2013-02-11 13:56:00,
2013-02-11 09:01:00,35.1,15.4,29.68,SSE,164,0.0,0.0,44,0.00,,---,0.00,VWS V13.01,2013-02-11 14:01:00,
2013-02-11 09:06:00,35.1,15.4,29.68,NE,56,0.0,0.0,44,0.00,,---,0.00,VWS V13.01,2013-02-11 14:06:00,
2013-02-11 09:11:00,35.1,15.4,29.68,SSE,165,0.0,2.7,44,0.00,,---,0.00,VWS V13.01,2013-02-11 14:11:00,
2013-02-11 09:16:00,35.1,15.4,29.65,SSE,165,0.0,2.7,44,0.00,,---,0.00,VWS V13.01,2013-02-11 14:16:00,
2013-02-11 09:21:00,35.1,15.9,29.65,ENE,58,0.0,0.0,45,0.00,,---,0.00,VWS V13.01,2013-02-11 14:21:00,
2013-02-11 09:26:00,35.4,16.2,29.65,ENE,58,0.0,0.0,45,0.00,,---,0.00,VWS V13.01,2013-02-11 14:26:00,
2013-02-11 09:31:00,35.4,16.2,29.62,ENE,58,0.0,0.0,45,0.00,,---,0.00,VWS V13.01,2013-02-11 14:31:00,
2013-02-11 09:37:00,35.6,16.4,29.62,ENE,58,0.0,0.0,45,0.00,,---,0.00,VWS V13.01,2013-02-11 14:37:00,
2013-02-11 09:42:00,35.4,15.7,29.62,ENE,58,0.0,0.0,44,0.00,,---,0.00,VWS V13.01,2013-02-11 14:42:00,
2013-02-11 09:47:00,35.6,15.9,29.62,ENE,58,0.0,0.0,44,0.00,,---,0.00,VWS V13.01,2013-02-11 14:47:00,
2013-02-11 09:52:00,36.0,16.7,29.62,ENE,58,0.0,0.0,45,0.00,,---,0.00,VWS V13.01,2013-02-11 14:52:00,
2013-02-11 09:57:00,36.5,17.7,29.62,ENE,58,0.0,0.0,46,0.00,,---,0.00,VWS V13.01,2013-02-11 14:57:00,
2013-02-11 10:02:00,36.7,17.9,29.62,ENE,58,0.0,0.0,46,0.00,,---,0.00,VWS V13.01,2013-02-11 15:02:00,
2013-02-11 10:07:00,36.7,17.9,29.62,ENE,58,0.0,0.0,46,0.00,,---,0.00,VWS V13.01,2013-02-11 15:07:00,
2013-02-11 10:13:00,36.7,17.4,29.62,ENE,58,0.0,0.0,45,0.00,,---,0.00,VWS V13.01,2013-02-11 15:13:00,
2013-02-11 10:18:00,37.0,18.2,29.62,ENE,58,0.0,0.0,46,0.00,,---,0.00,VWS V13.01,2013-02-11 15:18:00,
2013-02-11 10:23:00,37.0,17.7,29.62,ENE,58,0.0,0.0,45,0.00,,---,0.00,VWS V13.01,2013-02-11 15:23:00,
2013-02-11 10:28:00,36.7,17.4,29.62,ENE,58,0.0,0.0,45,0.00,,---,0.00,VWS V13.01,2013-02-11 15:28:00,
2013-02-11 10:33:00,36.9,17.5,29.59,ENE,58,0.0,0.0,45,0.00,,---,0.00,VWS V13.01,2013-02-11 15:33:00,
2013-02-11 10:38:00,37.0,17.7,29.59,ENE,58,0.0,0.0,45,0.00,,---,0.00,VWS V13.01,2013-02-11 15:38:00,
2013-02-11 10:43:00,37.0,17.7,29.59,ENE,58,0.0,0.0,45,0.00,,---,0.00,VWS V13.01,2013-02-11 15:43:00,
2013-02-11 10:48:00,37.0,18.2,29.59,ENE,58,0.0,0.0,46,0.00,,---,0.00,VWS V13.01,2013-02-11 15:48:00,
2013-02-11 10:54:00,37.0,17.7,29.59,ENE,58,0.0,0.0,45,0.00,,---,0.00,VWS V13.01,2013-02-11 15:54:00,
2013-02-11 10:59:00,37.0,17.7,29.59,ENE,58,0.0,0.0,45,0.00,,---,0.00,VWS V13.01,2013-02-11 15:59:00,
2013-02-11 11:04:00,37.0,17.7,29.59,ENE,58,0.0,0.0,45,0.00,,---,0.00,VWS V13.01,2013-02-11 16:04:00,
2013-02-11 11:09:00,37.0,17.7,29.59,ENE,58,0.0,0.0,45,0.00,,---,0.00,VWS V13.01,2013-02-11 16:09:00,
2013-02-11 11:14:00,37.0,17.7,29.59,ENE,58,0.0,0.0,45,0.00,,---,0.00,VWS V13.01,2013-02-11 16:14:00,
2013-02-11 11:19:00,36.9,17.5,29.57,ENE,58,0.0,0.0,45,0.00,,---,0.00,VWS V13.01,2013-02-11 16:19:00,
2013-02-11 11:24:00,36.9,17.5,29.57,ENE,58,0.0,0.0,45,0.00,,---,0.00,VWS V13.01,2013-02-11 16:24:00,
2013-02-11 11:29:00,37.0,17.7,29.57,ENE,58,0.0,0.0,45,0.00,,---,0.00,VWS V13.01,2013-02-11 16:29:00,
2013-02-11 11:35:00,37.0,17.7,29.57,ENE,58,0.0,0.0,45,0.00,,---,0.00,VWS V13.01,2013-02-11 16:35:00,
2013-02-11 11:40:00,37.0,17.7,29.57,ENE,58,0.0,0.0,45,0.00,,---,0.00,VWS V13.01,2013-02-11 16:40:00,
2013-02-11 11:45:00,37.0,17.7,29.54,ENE,58,0.0,0.0,45,0.00,,---,0.00,VWS V13.01,2013-02-11 16:45:00,
2013-02-11 11:50:00,37.0,17.7,29.54,ENE,58,0.0,0.0,45,0.00,,---,0.00,VWS V13.01,2013-02-11 16:50:00,
2013-02-11 11:55:00,37.2,18.4,29.54,ENE,58,0.0,0.0,46,0.00,,---,0.00,VWS V13.01,2013-02-11 16:55:00,
2013-02-11 12:00:00,37.2,17.9,29.54,ENE,58,0.0,0.0,45,0.00,,---,0.00,VWS V13.01,2013-02-11 17:00:00,
2013-02-11 12:05:00,37.2,18.4,29.54,ENE,58,0.0,0.0,46,0.00,,---,0.00,VWS V13.01,2013-02-11 17:05:00,
2013-02-11 12:11:00,37.2,18.4,29.54,ENE,58,0.0,0.0,46,0.00,,---,0.00,VWS V13.01,2013-02-11 17:11:00,
2013-02-11 12:16:00,37.6,19.2,29.54,WSW,241,0.0,3.1,47,0.00,,---,0.00,VWS V13.01,2013-02-11 17:16:00,
2013-02-11 12:21:00,38.7,21.2,29.54,SSW,208,0.0,0.0,49,0.00,,---,0.00,VWS V13.01,2013-02-11 17:21:00,
2013-02-11 12:26:00,38.8,21.3,29.54,SSW,208,0.0,0.0,49,0.00,,---,0.00,VWS V13.01,2013-02-11 17:26:00,
2013-02-11 12:31:00,39.4,21.8,29.51,SSW,208,0.0,0.0,49,0.00,,---,0.00,VWS V13.01,2013-02-11 17:31:00,
2013-02-11 12:36:00,39.9,22.8,29.51,SSW,210,0.0,0.0,50,0.00,,---,0.00,VWS V13.01,2013-02-11 17:36:00,
2013-02-11 12:42:00,40.3,22.7,29.51,SSW,210,0.0,0.0,49,0.00,,---,0.00,VWS V13.01,2013-02-11 17:42:00,
2013-02-11 12:47:00,40.8,23.6,29.48,SSW,210,0.0,0.0,50,0.00,,---,0.00,VWS V13.01,2013-02-11 17:47:00,
2013-02-11 12:52:00,40.8,23.1,29.48,SSW,211,0.0,0.0,49,0.00,,---,0.00,VWS V13.01,2013-02-11 17:52:00,
2013-02-11 12:57:00,41.2,23.0,29.48,SSW,211,0.0,0.0,48,0.00,,---,0.00,VWS V13.01,2013-02-11 17:57:00,
2013-02-11 13:02:00,41.5,23.3,29.48,SW,217,0.0,0.0,48,0.00,,---,0.00,VWS V13.01,2013-02-11 18:02:00,
2013-02-11 13:07:00,41.5,23.3,29.48,SW,218,0.0,0.0,48,0.00,,---,0.00,VWS V13.01,2013-02-11 18:07:00,
2013-02-11 13:13:00,41.9,24.1,29.48,WSW,243,0.0,3.1,49,0.00,,---,0.00,VWS V13.01,2013-02-11 18:13:00,
2013-02-11 13:18:00,41.7,23.5,29.45,WSW,243,0.0,3.1,48,0.00,,---,0.00,VWS V13.01,2013-02-11 18:18:00,
2013-02-11 13:23:00,41.9,24.1,29.45,WSW,243,0.0,0.0,49,0.00,,---,0.00,VWS V13.01,2013-02-11 18:23:00,
2013-02-11 13:28:00,42.3,24.5,29.45,WSW,243,0.0,0.0,49,0.00,,---,0.00,VWS V13.01,2013-02-11 18:28:00,
2013-02-11 13:33:00,42.1,24.3,29.45,WSW,256,0.0,0.0,49,0.00,,---,0.00,VWS V13.01,2013-02-11 18:33:00,
2013-02-11 13:38:00,42.1,23.8,29.45,WSW,256,0.0,0.0,48,0.00,,---,0.00,VWS V13.01,2013-02-11 18:38:00,
2013-02-11 13:43:00,42.1,24.3,29.45,West,268,0.0,0.0,49,0.00,,---,0.00,VWS V13.01,2013-02-11 18:43:00,
2013-02-11 13:49:00,42.3,24.5,29.45,West,268,0.0,0.0,49,0.00,,---,0.00,VWS V13.01,2013-02-11 18:49:00,
2013-02-11 13:54:00,42.3,24.5,29.45,West,268,0.0,0.0,49,0.00,,---,0.00,VWS V13.01,2013-02-11 18:54:00,
2013-02-11 13:59:00,41.9,23.7,29.45,West,268,0.0,0.0,48,0.00,,---,0.00,VWS V13.01,2013-02-11 18:59:00,
2013-02-11 14:04:00,42.1,24.3,29.42,West,268,0.0,0.0,49,0.00,,---,0.00,VWS V13.01,2013-02-11 19:04:00,
2013-02-11 14:09:00,42.1,24.3,29.42,West,268,0.0,0.0,49,0.00,,---,0.00,VWS V13.01,2013-02-11 19:09:00,
2013-02-11 14:14:00,41.7,24.0,29.42,West,269,0.0,0.0,49,0.00,,---,0.00,VWS V13.01,2013-02-11 19:14:00,
2013-02-11 14:20:00,41.9,24.1,29.45,West,268,0.0,0.0,49,0.00,,---,0.00,VWS V13.01,2013-02-11 19:20:00,
2013-02-11 14:25:00,42.1,24.3,29.45,West,268,0.0,0.0,49,0.00,,---,0.00,VWS V13.01,2013-02-11 19:25:00,
2013-02-11 14:30:00,41.9,24.1,29.45,West,268,0.0,0.0,49,0.00,,---,0.00,VWS V13.01,2013-02-11 19:30:00,
2013-02-11 14:35:00,42.1,24.8,29.42,West,268,0.0,0.0,50,0.00,,---,0.00,VWS V13.01,2013-02-11 19:35:00,
2013-02-11 14:40:00,41.7,24.0,29.42,West,268,0.0,0.0,49,0.00,,---,0.00,VWS V13.01,2013-02-11 19:40:00,
2013-02-11 14:45:00,41.5,23.8,29.42,West,268,0.0,0.0,49,0.00,,---,0.00,VWS V13.01,2013-02-11 19:45:00,
2013-02-11 14:50:00,41.5,23.8,29.42,West,264,0.0,0.0,49,0.00,,---,0.00,VWS V13.01,2013-02-11 19:50:00,
2013-02-11 14:56:00,41.7,24.5,29.42,West,264,0.0,0.0,50,0.00,,---,0.00,VWS V13.01,2013-02-11 19:56:00,
2013-02-11 15:01:00,41.7,24.5,29.42,West,264,0.0,0.0,50,0.00,,---,0.00,VWS V13.01,2013-02-11 20:01:00,
2013-02-11 15:06:00,41.5,24.3,29.42,West,264,0.0,0.0,50,0.00,,---,0.00,VWS V13.01,2013-02-11 20:06:00,
2013-02-11 15:11:00,41.0,23.3,29.42,West,264,0.0,0.0,49,0.00,,---,0.00,VWS V13.01,2013-02-11 20:11:00,
2013-02-11 15:16:00,41.0,23.3,29.39,West,264,0.0,0.0,49,0.00,,---,0.00,VWS V13.01,2013-02-11 20:16:00,
2013-02-11 15:21:00,41.0,23.3,29.39,West,264,0.0,0.0,49,0.00,,---,0.00,VWS V13.01,2013-02-11 20:21:00,
2013-02-11 15:26:00,40.8,23.6,29.39,West,264,0.0,0.0,50,0.00,,---,0.00,VWS V13.01,2013-02-11 20:26:00,
2013-02-11 15:32:00,41.0,23.8,29.39,West,264,0.0,0.0,50,0.00,,---,0.00,VWS V13.01,2013-02-11 20:32:00,
2013-02-11 15:37:00,40.8,24.1,29.39,West,264,0.0,0.0,51,0.00,,---,0.00,VWS V13.01,2013-02-11 20:37:00,
2013-02-11 15:42:00,40.8,23.6,29.39,West,264,0.0,0.0,50,0.00,,---,0.00,VWS V13.01,2013-02-11 20:42:00,
2013-02-11 15:47:00,41.0,24.3,29.39,West,261,0.0,0.0,51,0.00,,---,0.00,VWS V13.01,2013-02-11 20:47:00,
2013-02-11 15:52:00,40.6,23.5,29.39,West,261,0.0,0.0,50,0.00,,---,0.00,VWS V13.01,2013-02-11 20:52:00,
2013-02-11 15:57:00,40.5,23.8,29.39,West,261,0.0,0.0,51,0.00,,---,0.00,VWS V13.01,2013-02-11 20:57:00,
2013-02-11 16:03:00,40.3,23.6,29.39,West,265,0.0,0.0,51,0.00,,---,0.00,VWS V13.01,2013-02-11 21:03:00,
2013-02-11 16:08:00,40.3,23.6,29.39,West,265,0.0,0.0,51,0.00,,---,0.00,VWS V13.01,2013-02-11 21:08:00,
2013-02-11 16:13:00,40.3,23.6,29.39,WSW,249,0.0,3.6,51,0.00,,---,0.00,VWS V13.01,2013-02-11 21:13:00,
2013-02-11 16:18:00,40.5,24.2,29.36,WSW,249,0.0,3.6,52,0.00,,---,0.00,VWS V13.01,2013-02-11 21:18:00,
2013-02-11 16:23:00,40.6,24.4,29.36,WSW,249,0.0,0.0,52,0.00,,---,0.00,VWS V13.01,2013-02-11 21:23:00,
2013-02-11 16:28:00,40.6,24.9,29.36,WSW,250,0.0,0.0,53,0.00,,---,0.00,VWS V13.01,2013-02-11 21:28:00,
2013-02-11 16:33:00,40.3,24.1,29.36,WSW,250,0.0,0.0,52,0.00,,---,0.00,VWS V13.01,2013-02-11 21:33:00,
2013-02-11 16:39:00,40.1,23.9,29.36,WSW,250,0.0,0.0,52,0.00,,---,0.00,VWS V13.01,2013-02-11 21:39:00,
2013-02-11 16:44:00,39.9,23.7,29.36,WSW,250,0.0,0.0,52,0.00,,---,0.00,VWS V13.01,2013-02-11 21:44:00,
2013-02-11 16:49:00,39.9,23.7,29.36,WSW,250,0.0,0.0,52,0.00,,---,0.00,VWS V13.01,2013-02-11 21:49:00,
2013-02-11 16:54:00,39.7,23.6,29.36,WSW,250,0.0,0.0,52,0.00,,---,0.00,VWS V13.01,2013-02-11 21:54:00,
2013-02-11 16:59:00,39.6,23.4,29.36,WSW,250,0.0,0.0,52,0.00,,---,0.00,VWS V13.01,2013-02-11 21:59:00,
2013-02-11 17:05:00,39.9,24.6,29.36,WSW,252,0.0,0.0,54,0.00,,---,0.00,VWS V13.01,2013-02-11 22:05:00,
2013-02-11 17:10:00,40.1,25.7,29.36,WSW,252,0.0,0.0,56,0.00,,---,0.00,VWS V13.01,2013-02-11 22:10:00,
2013-02-11 17:15:00,39.7,24.5,29.36,WSW,252,0.0,0.0,54,0.00,,---,0.00,VWS V13.01,2013-02-11 22:15:00,
2013-02-11 17:20:00,39.6,23.9,29.36,WSW,252,0.0,0.0,53,0.00,,---,0.00,VWS V13.01,2013-02-11 22:20:00,
2013-02-11 17:25:00,39.6,24.3,29.36,WSW,252,0.0,0.0,54,0.00,,---,0.00,VWS V13.01,2013-02-11 22:25:00,
2013-02-11 17:30:00,39.0,23.8,29.33,WSW,252,0.0,0.0,54,0.00,,---,0.00,VWS V13.01,2013-02-11 22:30:00,
2013-02-11 17:35:00,39.2,24.0,29.33,WSW,252,0.0,0.0,54,0.00,,---,0.00,VWS V13.01,2013-02-11 22:35:00,
2013-02-11 17:40:00,39.4,25.0,29.33,WSW,252,0.0,0.0,56,0.00,,---,0.00,VWS V13.01,2013-02-11 22:40:00,
2013-02-11 17:46:00,39.7,25.8,29.33,WSW,252,0.0,0.0,57,0.00,,---,0.00,VWS V13.01,2013-02-11 22:46:00,
2013-02-11 17:51:00,39.2,24.0,29.33,WSW,252,0.0,0.0,54,0.00,,---,0.00,VWS V13.01,2013-02-11 22:51:00,
2013-02-11 17:56:00,38.7,23.0,29.33,WSW,252,0.0,0.0,53,0.00,,---,0.00,VWS V13.01,2013-02-11 22:56:00,
2013-02-11 18:01:00,38.7,23.0,29.33,WSW,252,0.0,0.0,53,0.00,,---,0.00,VWS V13.01,2013-02-11 23:01:00,
2013-02-11 18:06:00,38.1,22.1,29.33,WSW,252,0.0,0.0,52,0.00,,---,0.00,VWS V13.01,2013-02-11 23:06:00,
2013-02-11 18:11:00,37.9,22.4,29.33,WSW,252,0.0,0.0,53,0.00,,---,0.00,VWS V13.01,2013-02-11 23:11:00,
2013-02-11 18:16:00,37.9,22.8,29.33,WSW,252,0.0,0.0,54,0.00,,---,0.00,VWS V13.01,2013-02-11 23:16:00,
2013-02-11 18:22:00,37.9,22.8,29.33,WSW,252,0.0,0.0,54,0.00,,---,0.00,VWS V13.01,2013-02-11 23:22:00,
2013-02-11 18:27:00,37.9,23.2,29.33,WSW,252,0.0,0.0,55,0.00,,---,0.00,VWS V13.01,2013-02-11 23:27:00,
2013-02-11 18:32:00,38.1,23.8,29.33,WSW,252,0.0,0.0,56,0.00,,---,0.00,VWS V13.01,2013-02-11 23:32:00,
2013-02-11 18:37:00,38.1,23.8,29.33,WSW,252,0.0,0.0,56,0.00,,---,0.00,VWS V13.01,2013-02-11 23:37:00,
2013-02-11 18:42:00,38.1,23.8,29.33,WSW,252,0.0,0.0,56,0.00,,---,0.00,VWS V13.01,2013-02-11 23:42:00,
2013-02-11 18:47:00,38.1,23.8,29.33,WSW,252,0.0,0.0,56,0.00,,---,0.00,VWS V13.01,2013-02-11 23:47:00,
2013-02-11 18:52:00,38.1,23.8,29.33,WSW,252,0.0,0.0,56,0.00,,---,0.00,VWS V13.01,2013-02-11 23:52:00,
2013-02-11 18:57:00,38.1,23.8,29.33,WSW,252,0.0,0.0,56,0.00,,---,0.00,VWS V13.01,2013-02-11 23:57:00,
2013-02-11 19:03:00,38.1,24.2,29.33,WSW,252,0.0,0.0,57,0.00,,---,0.00,VWS V13.01,2013-02-12 00:03:00,
2013-02-11 19:08:00,37.9,23.7,29.33,WSW,252,0.0,0.0,56,0.00,,---,0.00,VWS V13.01,2013-02-12 00:08:00,
2013-02-11 19:13:00,37.9,23.7,29.33,WSW,252,0.0,0.0,56,0.00,,---,0.00,VWS V13.01,2013-02-12 00:13:00,
2013-02-11 19:18:00,38.1,24.2,29.30,WSW,252,0.0,0.0,57,0.00,,---,0.00,VWS V13.01,2013-02-12 00:18:00,
2013-02-11 19:23:00,37.9,24.1,29.30,WSW,252,0.0,0.0,57,0.00,,---,0.00,VWS V13.01,2013-02-12 00:23:00,
2013-02-11 19:28:00,37.9,23.7,29.30,WSW,252,0.0,0.0,56,0.00,,---,0.00,VWS V13.01,2013-02-12 00:28:00,
2013-02-11 19:33:00,37.9,23.7,29.30,WSW,252,0.0,0.0,56,0.00,,---,0.00,VWS V13.01,2013-02-12 00:33:00,
2013-02-11 19:39:00,38.1,24.2,29.30,WSW,252,0.0,0.0,57,0.00,,---,0.00,VWS V13.01,2013-02-12 00:39:00,
2013-02-11 19:44:00,38.5,25.0,29.30,WSW,252,0.0,0.0,58,0.00,,---,0.00,VWS V13.01,2013-02-12 00:44:00,
2013-02-11 19:49:00,38.1,24.2,29.30,WSW,252,0.0,0.0,57,0.00,,---,0.00,VWS V13.01,2013-02-12 00:49:00,
2013-02-11 19:54:00,38.1,23.8,29.30,WSW,252,0.0,0.0,56,0.00,,---,0.00,VWS V13.01,2013-02-12 00:54:00,
2013-02-11 19:59:00,38.3,24.4,29.30,WSW,252,0.0,0.0,57,0.00,,---,0.00,VWS V13.01,2013-02-12 00:59:00,
2013-02-11 20:04:00,38.3,24.4,29.30,WSW,252,0.0,0.0,57,0.00,,---,0.00,VWS V13.01,2013-02-12 01:04:00,
2013-02-11 20:09:00,38.5,25.0,29.30,WSW,252,0.0,0.0,58,0.00,,---,0.00,VWS V13.01,2013-02-12 01:09:00,
2013-02-11 20:15:00,38.7,25.6,29.30,WSW,252,0.0,0.0,59,0.00,,---,0.00,VWS V13.01,2013-02-12 01:15:00,
2013-02-11 20:20:00,38.7,25.6,29.30,WSW,252,0.0,0.0,59,0.00,,---,0.00,VWS V13.01,2013-02-12 01:20:00,
2013-02-11 20:25:00,38.5,24.6,29.30,WSW,252,0.0,0.0,57,0.00,,---,0.00,VWS V13.01,2013-02-12 01:25:00,
2013-02-11 20:30:00,38.5,24.6,29.30,WSW,252,0.0,0.0,57,0.00,,---,0.00,VWS V13.01,2013-02-12 01:30:00,
2013-02-11 20:35:00,38.5,24.6,29.30,WSW,252,0.0,0.0,57,0.00,,---,0.00,VWS V13.01,2013-02-12 01:35:00,
2013-02-11 20:40:00,38.1,23.8,29.30,WSW,252,0.0,0.0,56,0.00,,---,0.00,VWS V13.01,2013-02-12 01:40:00,
2013-02-11 20:45:00,38.1,23.8,29.30,WSW,252,0.0,0.0,56,0.00,,---,0.00,VWS V13.01,2013-02-12 01:45:00,
2013-02-11 20:51:00,38.3,24.4,29.30,WSW,252,0.0,0.0,57,0.00,,---,0.00,VWS V13.01,2013-02-12 01:51:00,
2013-02-11 20:56:00,38.1,24.2,29.30,WSW,252,0.0,0.0,57,0.00,,---,0.00,VWS V13.01,2013-02-12 01:56:00,
2013-02-11 21:01:00,38.3,24.4,29.30,WSW,252,0.0,0.0,57,0.00,,---,0.00,VWS V13.01,2013-02-12 02:01:00,
2013-02-11 21:06:00,38.1,23.8,29.30,WSW,252,0.0,0.0,56,0.00,,---,0.00,VWS V13.01,2013-02-12 02:06:00,
2013-02-11 21:11:00,38.3,24.4,29.30,WSW,252,0.0,0.0,57,0.00,,---,0.00,VWS V13.01,2013-02-12 02:11:00,
2013-02-11 21:16:00,38.1,24.2,29.33,West,276,0.0,0.0,57,0.00,,---,0.00,VWS V13.01,2013-02-12 02:16:00,
2013-02-11 21:21:00,38.1,24.2,29.33,West,276,0.0,0.0,57,0.00,,---,0.00,VWS V13.01,2013-02-12 02:21:00,
2013-02-11 21:27:00,38.3,24.4,29.33,West,276,0.0,0.0,57,0.00,,---,0.00,VWS V13.01,2013-02-12 02:27:00,
2013-02-11 21:32:00,38.7,25.2,29.33,West,276,0.0,0.0,58,0.00,,---,0.00,VWS V13.01,2013-02-12 02:32:00,
2013-02-11 21:37:00,38.5,25.0,29.33,West,276,0.0,0.0,58,0.00,,---,0.00,VWS V13.01,2013-02-12 02:37:00,
2013-02-11 21:42:00,38.1,23.4,29.33,West,276,0.0,0.0,55,0.00,,---,0.00,VWS V13.01,2013-02-12 02:42:00,
2013-02-11 21:47:00,38.1,23.8,29.30,West,276,0.0,0.0,56,0.00,,---,0.00,VWS V13.01,2013-02-12 02:47:00,
2013-02-11 21:52:00,38.1,24.2,29.30,West,276,0.0,0.0,57,0.00,,---,0.00,VWS V13.01,2013-02-12 02:52:00,
2013-02-11 21:57:00,37.6,22.9,29.30,West,276,0.0,0.0,55,0.00,,---,0.00,VWS V13.01,2013-02-12 02:57:00,
2013-02-11 22:02:00,37.4,22.7,29.30,West,276,0.0,0.0,55,0.00,,---,0.00,VWS V13.01,2013-02-12 03:02:00,
2013-02-11 22:08:00,37.9,24.5,29.30,West,276,0.0,0.0,58,0.00,,---,0.00,VWS V13.01,2013-02-12 03:08:00,
2013-02-11 22:13:00,37.9,24.5,29.30,West,276,0.0,0.0,58,0.00,,---,0.00,VWS V13.01,2013-02-12 03:13:00,
2013-02-11 22:18:00,37.6,23.3,29.30,West,276,0.0,0.0,56,0.00,,---,0.00,VWS V13.01,2013-02-12 03:18:00,
2013-02-11 22:23:00,37.8,23.5,29.30,West,276,0.0,0.0,56,0.00,,---,0.00,VWS V13.01,2013-02-12 03:23:00,
2013-02-11 22:28:00,37.6,23.7,29.30,West,265,0.0,0.0,57,0.00,,---,0.00,VWS V13.01,2013-02-12 03:28:00,
2013-02-11 22:33:00,38.1,25.5,29.30,WSW,256,0.0,0.0,60,0.00,,---,0.00,VWS V13.01,2013-02-12 03:33:00,
2013-02-11 22:38:00,38.1,25.5,29.30,West,274,0.0,0.0,60,0.00,,---,0.00,VWS V13.01,2013-02-12 03:38:00,
2013-02-11 22:43:00,38.1,25.5,29.30,West,273,0.0,0.0,60,0.00,,---,0.00,VWS V13.01,2013-02-12 03:43:00,
2013-02-11 22:48:00,37.9,24.9,29.30,West,273,0.0,0.0,59,0.00,,---,0.00,VWS V13.01,2013-02-12 03:48:00,
2013-02-11 22:54:00,37.8,24.7,29.30,West,273,0.0,0.0,59,0.00,,---,0.00,VWS V13.01,2013-02-12 03:54:00,
2013-02-11 22:59:00,37.6,24.6,29.30,West,273,0.0,0.0,59,0.00,,---,0.00,VWS V13.01,2013-02-12 03:59:00,
2013-02-11 23:04:00,37.4,24.4,29.30,West,279,0.0,0.0,59,0.00,,---,0.00,VWS V13.01,2013-02-12 04:04:00,
2013-02-11 23:09:00,37.2,24.6,29.30,West,279,0.0,0.0,60,0.00,,---,0.00,VWS V13.01,2013-02-12 04:09:00,
2013-02-11 23:14:00,37.4,25.2,29.30,WNW,284,0.0,0.0,61,0.00,,---,0.00,VWS V13.01,2013-02-12 04:14:00,
2013-02-11 23:19:00,37.6,25.8,29.33,WNW,286,3.6,3.6,62,0.00,,---,0.00,VWS V13.01,2013-02-12 04:19:00,
2013-02-11 23:24:00,37.9,26.5,29.33,WNW,284,0.0,3.1,63,0.00,,---,0.00,VWS V13.01,2013-02-12 04:24:00,
2013-02-11 23:29:00,38.1,27.4,29.33,NW,325,0.0,6.5,65,0.00,,---,0.00,VWS V13.01,2013-02-12 04:29:00,
2013-02-11 23:34:00,38.7,28.3,29.33,WNW,292,2.7,7.8,66,0.00,,---,0.00,VWS V13.01,2013-02-12 04:34:00,
2013-02-11 23:40:00,38.8,28.8,29.33,West,281,0.0,8.9,67,0.00,,---,0.00,VWS V13.01,2013-02-12 04:40:00,
2013-02-11 23:45:00,38.8,28.8,29.33,WNW,288,0.0,8.7,67,0.00,,---,0.00,VWS V13.01,2013-02-12 04:45:00,
2013-02-11 23:50:00,38.7,28.7,29.33,NW,306,0.0,8.7,67,0.00,,---,0.00,VWS V13.01,2013-02-12 04:50:00,
2013-02-11 23:55:00,38.8,29.2,29.33,NNE,24,2.7,8.7,68,0.00,,---,0.00,VWS V13.01,2013-02-12 04:55:00,